Back to catalog

STARLINK-31989

AliveCommunicationsVLEO
NORAD 59959·PAYLOAD·🇺🇸 United States

Launched Jun 5, 2024 from Cape Canaveral Space Force Station

Loading…

Next Passes (next 24 hours)

TLE

FreshSource: CelesTrak SupGP

Epoch: Sep 14, 2026, 22:40 UTC

1 59959C 24107Q   26257.94493056  .00045240  00000+0  13367-2 0  2576
2 59959  53.1576 263.4112 0001281  89.3527 331.1629 15.34367192    18

Track STARLINK-31989 in real time with AllMySat

Download on the App Store